GW3616 Weather Reports


time (UTC)temp
C
wind
direction
speed
KPH
gust
KPH
rain 1hr
cm
rain 24hr
cm
rain mn
cm
humidity
%
barometer
mb
20260906123852 16 73 0.0 1.6 0.00 0.00 0.00 99 1023.2
20260906123346 16 71 0.0 0.0 0.00 0.00 0.00 99 1023.1
20260906122841 16 71 0.0 0.0 0.00 0.00 0.00 99 1023.0
20260906122336 15 71 0.0 0.0 0.00 0.00 0.00 99 1023.2
20260906121833 15 71 0.0 0.0 0.00 0.00 0.00 99 1022.9
20260906121328 15 70 0.0 0.0 0.00 0.00 0.00 99 1022.7
20260906120824 15 71 0.0 0.0 0.00 0.00 0.00 99 1022.7
20260906120320 15 71 0.0 0.0 0.00 0.00 0.00 99 1022.7
20260906115816 14 71 0.0 0.0 0.00 0.00 0.00 99 1022.7
20260906115311 13 71 0.0 0.0 0.00 0.00 0.00 99 1022.6
20260906114810 13 71 0.0 0.0 0.00 0.00 0.00 99 1022.4
20260906114306 13 71 0.0 0.0 0.00 0.00 0.00 99 1022.5
20260906113800 13 71 0.0 0.0 0.00 0.00 0.00 99 1022.8
20260906113300 13 71 0.0 0.0 0.00 0.00 0.00 99 1022.5
20260906112755 13 71 0.0 0.0 0.00 0.00 0.00 99 1022.3
20260906112251 13 71 0.0 0.0 0.00 0.00 0.00 99 1022.1
20260906111750 13 71 0.0 0.0 0.00 0.00 0.00 99 1022.0
20260906111244 13 71 0.0 0.0 0.00 0.00 0.00 99 1022.4
20260906110739 13 71 0.0 0.0 0.00 0.00 0.00 99 1022.0
20260906110236 13 71 0.0 0.0 0.00 0.00 0.00 99 1022.1
20260906105734 13 71 0.0 0.0 0.00 0.00 0.00 99 1022.2
20260906105230 13 71 0.0 0.0 0.00 0.00 0.00 99 1022.3
20260906104725 13 71 0.0 0.0 0.00 0.00 0.00 99 1022.3
20260906104224 13 71 0.0 0.0 0.00 0.00 0.00 99 1022.3
20260906103722 13 71 0.0 0.0 0.00 0.00 0.00 99 1022.1
20260906103217 13 69 0.0 0.0 0.00 0.00 0.00 99 1022.1
20260906102712 13 70 0.0 0.0 0.00 0.00 0.00 99 1022.3
20260906102211 13 68 0.0 0.0 0.00 0.00 0.00 99 1022.2
20260906101706 13 68 0.0 0.0 0.00 0.00 0.00 99 1022.2
20260906101201 13 68 0.0 0.0 0.00 0.00 0.00 99 1022.1
20260906100656 13 68 0.0 0.0 0.00 0.00 0.00 99 1022.1
20260906100151 13 62 0.0 0.0 0.00 0.00 0.00 99 1022.1
20260906095646 13 62 0.0 0.0 0.00 0.00 0.00 99 1022.0
20260906095141 13 62 0.0 0.0 0.00 0.00 0.00 99 1022.0
20260906094640 14 61 0.0 0.0 0.00 0.00 0.00 99 1021.9
20260906094136 14 61 0.0 0.0 0.00 0.00 0.00 99 1021.9
20260906093632 14 61 0.0 1.6 0.00 0.00 0.00 99 1021.9
20260906093132 14 61 0.0 1.6 0.00 0.00 0.00 99 1021.8
20260906092627 14 58 1.6 1.6 0.00 0.00 0.00 99 1021.7
20260906092121 14 63 1.6 1.6 0.00 0.00 0.00 99 1022.0
20260906091618 14 63 0.0 1.6 0.00 0.00 0.00 99 1022.0
20260906091114 14 63 0.0 0.0 0.00 0.00 0.00 99 1021.9
20260906090609 14 64 0.0 0.0 0.00 0.00 0.00 99 1021.9
20260906090109 14 64 0.0 0.0 0.00 0.00 0.00 99 1022.2
20260906085608 14 64 0.0 0.0 0.00 0.00 0.00 99 1021.9
20260906085102 14 64 0.0 0.0 0.00 0.00 0.00 99 1021.6
20260906084557 14 64 0.0 0.0 0.00 0.00 0.00 99 1021.9
20260906084056 14 64 0.0 0.0 0.00 0.00 0.00 99 1021.6
20260906083552 14 63 0.0 0.0 0.00 0.00 0.00 99 1021.4
20260906083051 15 64 0.0 0.0 0.00 0.00 0.00 99 1021.5
20260906082547 15 64 0.0 0.0 0.00 0.00 0.00 99 1021.4
20260906082042 15 64 0.0 0.0 0.00 0.00 0.00 99 1021.5
20260906081538 15 64 0.0 0.0 0.00 0.00 0.00 99 1021.3
20260906081033 15 64 0.0 0.0 0.00 0.00 0.00 99 1021.2
20260906080530 15 64 0.0 0.0 0.00 0.00 0.00 99 1021.1
20260906080025 15 64 0.0 0.0 0.00 0.00 0.00 99 1021.2
20260906075519 15 64 0.0 0.0 0.00 0.00 0.00 99 1021.0
20260906075014 15 64 0.0 0.0 0.00 0.00 0.00 99 1021.0
20260906074509 15 64 0.0 0.0 0.00 0.00 0.00 99 1021.1
20260906074007 15 64 0.0 0.0 0.00 0.00 0.00 99 1021.3
20260906073502 15 64 0.0 0.0 0.00 0.00 0.00 99 1021.2
20260906072958 15 64 0.0 1.6 0.00 0.00 0.00 99 1021.1
20260906072453 15 64 0.0 0.0 0.00 0.00 0.00 99 1021.1
20260906071949 15 64 0.0 0.0 0.00 0.00 0.00 99 1021.1
20260906071446 15 64 0.0 0.0 0.00 0.00 0.00 98 1021.2
20260906070941 15 64 0.0 0.0 0.00 0.00 0.00 98 1021.1
20260906070437 15 64 0.0 0.0 0.00 0.00 0.00 98 1021.0
20260906065932 15 64 0.0 0.0 0.00 0.00 0.00 97 1020.9
20260906065427 15 64 0.0 1.6 0.00 0.00 0.00 97 1021.0
20260906064922 15 64 1.6 1.6 0.00 0.00 0.00 97 1021.2
20260906064419 16 64 0.0 0.0 0.00 0.00 0.00 96 1021.2
20260906063918 16 64 0.0 0.0 0.00 0.00 0.00 96 1021.2
20260906063414 16 64 0.0 0.0 0.00 0.00 0.00 95 1021.1
20260906062909 16 64 0.0 0.0 0.00 0.00 0.00 95 1021.1
20260906062409 16 64 0.0 0.0 0.00 0.00 0.00 95 1021.2
20260906061904 16 63 0.0 1.6 0.00 0.00 0.00 95 1021.2
20260906061400 16 64 0.0 0.0 0.00 0.00 0.00 94 1020.9
20260906060854 16 63 1.6 1.6 0.00 0.00 0.00 94 1021.1
20260906060352 16 63 0.0 1.6 0.00 0.00 0.00 95 1021.1
20260906055848 16 59 0.0 1.6 0.00 0.00 0.00 95 1021.1
20260906055343 16 63 0.0 1.6 0.00 0.00 0.00 94 1021.2
20260906054838 16 63 0.0 1.6 0.00 0.00 0.00 93 1020.9
20260906054333 16 65 0.0 0.0 0.00 0.00 0.00 93 1021.1
20260906053830 16 65 0.0 1.6 0.00 0.00 0.00 92 1020.7
20260906053325 17 66 0.0 0.0 0.00 0.00 0.00 91 1020.8
20260906052820 17 65 0.0 1.6 0.00 0.00 0.00 91 1020.8
20260906052317 17 66 0.0 1.6 0.00 0.00 0.00 91 1020.9
20260906051814 17 66 0.0 0.0 0.00 0.00 0.00 90 1020.9
20260906051313 17 64 0.0 0.0 0.00 0.00 0.00 91 1020.9
20260906050808 17 68 0.0 1.6 0.00 0.00 0.00 91 1020.8
20260906050304 17 64 0.0 0.0 0.00 0.00 0.00 91 1020.9
20260906045802 17 64 0.0 1.6 0.00 0.00 0.00 91 1020.7
20260906045257 17 59 1.6 4.8 0.00 0.00 0.00 91 1020.9
20260906044754 17 64 0.0 1.6 0.00 0.00 0.00 92 1020.8
20260906044248 17 66 0.0 1.6 0.00 0.00 0.00 92 1020.8
20260906043744 17 70 0.0 0.0 0.00 0.00 0.00 93 1020.7
20260906043240 17 54 1.6 1.6 0.00 0.00 0.00 94 1020.8
20260906042739 17 66 0.0 1.6 0.00 0.00 0.00 95 1020.5
20260906042238 17 64 0.0 1.6 0.00 0.00 0.00 96 1020.5
20260906041734 17 64 0.0 0.0 0.00 0.00 0.00 96 1020.4
20260906041229 18 64 0.0 0.0 0.00 0.00 0.00 96 1020.3
20260906040725 18 64 0.0 0.0 0.00 0.00 0.00 96 1020.2
20260906040220 18 64 0.0 1.6 0.00 0.00 0.00 96 1020.2
20260906035715 18 66 0.0 1.6 0.00 0.33 0.33 97 1020.2
20260906035210 18 69 0.0 0.0 0.00 0.33 0.33 98 1020.2
20260906034705 18 69 0.0 0.0 0.00 0.33 0.33 99 1020.2
20260906034205 18 67 0.0 1.6 0.00 0.33 0.33 99 1019.9
20260906033701 18 66 0.0 1.6 0.00 0.33 0.33 99 1019.9
20260906033200 18 63 0.0 1.6 0.00 0.33 0.33 99 1020.0
20260906032657 18 66 0.0 1.6 0.00 0.33 0.33 99 1019.8
20260906032152 18 62 0.0 0.0 0.00 0.33 0.33 99 1019.9
20260906031648 18 61 0.0 1.6 0.00 0.33 0.33 99 1020.2
20260906031143 18 61 0.0 0.0 0.00 0.33 0.33 99 1020.0
20260906030642 18 61 0.0 1.6 0.00 0.33 0.33 99 1019.8
20260906030138 19 62 0.0 1.6 0.00 0.33 0.33 99 1019.7
20260906025636 19 62 0.0 0.0 0.00 0.33 0.33 99 1019.8
20260906025136 19 62 0.0 0.0 0.00 0.33 0.33 99 1019.7
20260906024630 19 62 0.0 0.0 0.00 0.33 0.33 99 1019.9
20260906024125 19 62 0.0 0.0 0.00 0.33 0.33 99 1019.7
20260906023621 19 62 0.0 0.0 0.00 0.33 0.33 99 1019.9
20260906023121 19 62 0.0 0.0 0.00 0.33 0.33 99 1019.8
20260906022616 19 62 0.0 1.6 0.00 0.33 0.33 99 1019.6
20260906022112 20 62 0.0 1.6 0.00 0.33 0.33 99 1019.5
20260906021607 20 61 1.6 1.6 0.00 0.33 0.33 99 1019.4
20260906021106 20 62 0.0 0.0 0.00 0.33 0.33 99 1019.5
20260906020606 20 62 0.0 0.0 0.00 0.33 0.33 99 1019.5
20260906020100 20 62 1.6 1.6 0.00 0.33 0.33 99 1019.2
20260906015559 20 62 0.0 1.6 0.00 0.33 0.33 99 1019.4
20260906015053 20 70 0.0 1.6 0.00 0.33 0.33 99 1019.1
20260906014549 20 70 0.0 0.0 0.00 0.33 0.33 99 1019.3
20260906014045 21 70 0.0 0.0 0.00 0.33 0.33 99 1019.6
20260906013539 21 70 0.0 0.0 0.00 0.33 0.33 99 1019.3
20260906013035 21 70 0.0 0.0 0.00 0.33 0.33 99 1019.2
20260906012530 21 70 0.0 0.0 0.00 0.33 0.33 99 1019.0
20260906012029 21 70 0.0 0.0 0.00 0.33 0.33 99 1019.0
20260906011526 21 71 0.0 0.0 0.00 0.33 0.33 99 1019.0
20260906011025 21 82 1.6 1.6 0.00 0.33 0.33 99 1018.7
20260906010520 21 76 0.0 0.0 0.00 0.33 0.33 98 1019.0
20260906010017 22 80 0.0 0.0 0.00 0.33 0.33 98 1018.9
20260906005515 22 68 0.0 0.0 0.00 0.33 0.33 98 1018.5
20260906005014 22 68 0.0 0.0 0.00 0.33 0.33 98 1018.7
20260906004509 22 68 0.0 1.6 0.00 0.33 0.33 98 1018.5
20260906004004 22 85 1.6 1.6 0.00 0.33 0.33 97 1018.5
20260906003459 22 57 0.0 1.6 0.00 0.33 0.33 96 1018.5
20260906002954 22 46 1.6 1.6 0.00 0.33 0.33 96 1018.8
20260906002449 22 64 0.0 0.0 0.00 0.33 0.33 95 1018.3
20260906001944 22 64 0.0 1.6 0.00 0.33 0.33 94 1018.2
20260906001439 22 64 0.0 1.6 0.00 0.33 0.33 94 1018.5
20260906000929 23 55 1.6 1.6 0.00 0.33 0.33 93 1018.4
20260906000425 23 59 0.0 1.6 0.00 0.33 0.33 92 1018.4
20260905235918 23 32 3.2 4.8 0.00 0.33 0.33 91 1018.7
20260905235413 24 60 0.0 1.6 0.00 0.33 0.33 90 1018.7
20260905234908 24 60 0.0 0.0 0.00 0.33 0.33 90 1018.9
20260905234403 25 60 0.0 1.6 0.00 0.33 0.33 88 1018.7
20260905233858 25 60 0.0 1.6 0.00 0.33 0.33 87 1018.5
20260905233353 24 64 0.0 0.0 0.00 0.33 0.33 88 1018.5
20260905232852 24 64 0.0 0.0 0.00 0.33 0.33 88 1018.5
20260905232349 25 62 0.0 1.6 0.00 0.33 0.33 88 1018.8
20260905231844 24 63 0.0 1.6 0.00 0.33 0.33 86 1018.4
20260905231339 25 67 0.0 1.6 0.00 0.33 0.33 86 1018.4
20260905230836 25 78 0.0 1.6 0.00 0.33 0.33 83 1018.4
20260905230333 25 88 1.6 1.6 0.00 0.33 0.33 82 1018.5
20260905225832 25 82 0.0 0.0 0.00 0.33 0.33 84 1018.5
20260905225327 24 95 1.6 4.8 0.00 0.33 0.33 82 1018.5
20260905224822 25 83 0.0 1.6 0.00 0.33 0.33 84 1018.3
20260905224318 25 95 3.2 6.4 0.00 0.33 0.33 81 1018.5
20260905223812 25 84 0.0 1.6 0.00 0.33 0.33 82 1018.7
20260905223310 25 82 0.0 1.6 0.00 0.33 0.33 81 1018.4
20260905222805 25 79 0.0 0.0 0.00 0.33 0.33 84 1018.4
20260905222306 24 87 0.0 1.6 0.00 0.33 0.33 84 1018.5
20260905221800 24 82 0.0 4.8 0.00 0.33 0.33 84 1018.3
20260905221256 24 87 3.2 8.0 0.00 0.33 0.33 82 1018.5
20260905220752 25 76 0.0 4.8 0.00 0.33 0.33 84 1018.3
20260905220248 25 90 4.8 6.4 0.00 0.33 0.33 82 1018.3
20260905215747 25 78 0.0 6.4 0.00 0.33 0.33 84 1018.1
20260905215243 24 96 4.8 9.7 0.00 0.33 0.33 85 1018.0
20260905214739 24 69 3.2 6.4 0.00 0.33 0.33 84 1017.8
20260905214235 25 89 0.0 1.6 0.00 0.33 0.33 87 1018.0
20260905213730 24 99 8.0 8.0 0.00 0.33 0.33 85 1018.1
20260905213226 24 93 3.2 4.8 0.00 0.33 0.33 85 1018.0
20260905212721 24 66 0.0 4.8 0.00 0.33 0.33 87 1018.1
20260905212220 24 78 0.0 1.6 0.00 0.33 0.33 86 1018.0
20260905211719 23 71 0.0 4.8 0.00 0.33 0.33 87 1018.0
20260905211215 24 81 1.6 12.9 0.00 0.33 0.33 86 1017.9
20260905210711 23 92 4.8 6.4 0.00 0.33 0.33 87 1018.0
20260905210206 23 67 1.6 4.8 0.00 0.33 0.33 86 1018.1
20260905205705 23 136 6.4 9.7 0.00 0.33 0.33 87 1018.0
20260905205205 24 93 1.6 1.6 0.00 0.33 0.33 89 1017.8
20260905204705 25 98 4.8 4.8 0.00 0.33 0.33 89 1018.1
20260905204200 23 118 1.6 6.4 0.00 0.33 0.33 89 1017.8
20260905203654 24 89 4.8 4.8 0.00 0.33 0.33 89 1018.2
20260905203150 23 80 0.0 4.8 0.00 0.33 0.33 91 1017.9
20260905202645 23 60 1.6 1.6 0.00 0.33 0.33 92 1018.2
20260905202140 22 77 1.6 8.0 0.00 0.33 0.33 93 1018.3
20260905201636 22 92 1.6 4.8 0.00 0.33 0.33 94 1018.3
20260905201130 22 74 0.0 1.6 0.00 0.33 0.33 96 1018.3
20260905200626 22 98 0.0 4.8 0.00 0.33 0.33 97 1018.3
20260905200121 21 85 0.0 6.4 0.00 0.33 0.33 97 1018.4
20260905195619 22 76 8.0 9.7 0.00 0.33 0.33 98 1018.3
20260905195114 21 88 1.6 1.6 0.00 0.33 0.33 98 1018.4
20260905194609 21 106 3.2 4.8 0.00 0.33 0.33 99 1018.4
20260905194108 21 88 1.6 1.6 0.00 0.33 0.33 99 1018.4
20260905193603 21 75 4.8 6.4 0.00 0.33 0.33 99 1018.3
20260905193058 21 69 0.0 0.0 0.00 0.33 0.33 99 1018.4
20260905192554 21 86 1.6 1.6 0.00 0.33 0.33 99 1018.5
20260905192050 20 106 1.6 1.6 0.00 0.33 0.33 99 1018.7
20260905191548 20 72 0.0 1.6 0.00 0.33 0.33 99 1018.9
20260905191047 20 92 4.8 6.4 0.00 0.33 0.33 99 1018.9
20260905190545 20 55 3.2 4.8 0.00 0.33 0.33 99 1018.7
20260905190039 20 75 1.6 6.4 0.00 0.33 0.33 99 1018.8
20260905185539 20 75 0.0 8.0 0.00 0.33 0.33 99 1018.7
20260905185038 20 69 1.6 4.8 0.18 0.33 0.33 99 1018.7
20260905184533 20 83 0.0 8.0 0.18 0.33 0.33 99 1018.8
20260905184031 20 81 0.0 1.6 0.00 0.30 0.30 99 1018.9
20260905183526 20 74 0.0 1.6 0.00 0.30 0.30 99 1019.1
20260905183021 20 75 0.0 1.6 0.13 0.30 0.30 99 1019.1
20260905182521 20 61 1.6 4.8 0.43 0.30 0.30 99 1019.1
20260905182015 20 100 1.6 4.8 0.97 0.28 0.28 99 1019.1
20260905181510 20 72 0.0 1.6 0.97 0.23 0.23 99 1019.1
20260905181009 20 95 1.6 4.8 0.43 0.13 0.13 99 1019.0
20260905180504 20 78 0.0 1.6 0.30 0.08 0.08 98 1019.1
20260905175959 21 74 0.0 1.6 0.30 0.05 0.05 98 1019.1
20260905175458 21 76 0.0 0.0 0.13 0.03 0.03 97 1019.0
20260905174954 21 76 0.0 0.0 0.00 0.00 0.00 97 1019.1
20260905174449 21 77 0.0 4.8 0.00 0.00 0.00 96 1018.8
20260905173945 20 78 0.0 6.4 0.00 0.00 0.00 96 1018.9
20260905173441 20 80 0.0 4.8 0.00 0.00 0.00 96 1018.9
20260905172936 20 89 1.6 4.8 0.00 0.00 0.00 96 1018.8
20260905172434 20 60 1.6 4.8 0.00 0.00 0.00 96 1018.9
20260905171930 21 71 0.0 1.6 0.00 0.00 0.00 96 1018.8
20260905171427 20 103 1.6 4.8 0.00 0.00 0.00 96 1018.9
20260905170923 20 62 0.0 1.6 0.00 0.00 0.00 96 1018.8
20260905170419 20 101 4.8 6.4 0.00 0.00 0.00 96 1019.0
20260905165918 20 86 4.8 6.4 0.00 0.00 0.00 96 1019.1
20260905165413 20 68 0.0 1.6 0.00 0.00 0.00 96 1018.7
20260905164909 20 97 4.8 8.0 0.00 0.00 0.00 96 1019.0
20260905164403 20 102 4.8 6.4 0.00 0.00 0.00 96 1018.8
20260905163858 20 63 1.6 9.7 0.00 0.00 0.00 95 1018.9
20260905163355 20 51 1.6 9.7 0.00 0.00 0.00 96 1018.5
20260905162850 21 84 3.2 4.8 0.00 0.00 0.00 95 1018.7
20260905162350 21 103 1.6 6.4 0.00 0.00 0.00 94 1018.5
20260905161845 21 60 1.6 8.0 0.00 0.00 0.00 94 1018.8
20260905161344 21 66 0.0 4.8 0.00 0.00 0.00 94 1018.5
20260905160843 21 94 9.7 12.9 0.00 0.00 0.00 94 1018.7
20260905160337 21 85 3.2 16.1 0.00 0.00 0.00 93 1018.7
20260905155831 21 79 4.8 8.0 0.00 0.00 0.00 93 1018.4
20260905155325 21 107 8.0 14.5 0.00 0.00 0.00 93 1018.5
20260905154825 21 87 1.6 4.8 0.00 0.00 0.00 92 1018.4
20260905154320 21 93 1.6 12.9 0.00 0.00 0.00 92 1018.2
20260905153816 20 127 6.4 14.5 0.00 0.00 0.00 92 1018.1
20260905153312 21 92 8.0 9.7 0.00 0.00 0.00 92 1018.2
20260905152806 21 146 8.0 8.0 0.00 0.00 0.00 92 1018.3
20260905152306 21 71 0.0 1.6 0.00 0.00 0.00 93 1018.4
20260905151800 21 81 0.0 1.6 0.00 0.00 0.00 93 1018.3
20260905151255 21 70 0.0 6.4 0.00 0.00 0.00 93 1018.4
20260905150750 21 65 0.0 1.6 0.00 0.00 0.00 93 1018.3
20260905150250 21 77 0.0 1.6 0.00 0.00 0.00 93 1018.2
20260905145747 21 104 4.8 4.8 0.00 0.00 0.00 92 1018.2
20260905145242 21 89 3.2 6.4 0.00 0.00 0.00 92 1018.3
20260905144741 21 100 4.8 6.4 0.00 0.00 0.00 92 1018.2
20260905144237 21 99 9.7 12.9 0.00 0.00 0.00 92 1018.2
20260905143735 21 83 1.6 4.8 0.00 0.00 0.00 93 1018.2
20260905143235 21 84 1.6 1.6 0.00 0.00 0.00 93 1018.1
20260905142734 21 106 6.4 8.0 0.00 0.00 0.00 93 1018.2
20260905142228 21 69 3.2 6.4 0.00 0.00 0.00 93 1018.2
20260905141724 21 73 0.0 4.8 0.00 0.00 0.00 93 1018.3
20260905141220 21 59 1.6 8.0 0.00 0.00 0.00 93 1018.1
20260905140715 21 61 1.6 6.4 0.00 0.00 0.00 93 1018.0
20260905140209 21 70 0.0 6.4 0.00 0.00 0.00 93 1018.0
20260905135703 21 60 1.6 8.0 0.00 0.00 0.00 94 1017.8
20260905135200 21 70 1.6 6.4 0.00 0.00 0.00 94 1017.8
20260905134659 21 93 4.8 6.4 0.00 0.00 0.00 94 1017.8
20260905134158 21 80 1.6 6.4 0.00 0.00 0.00 94 1017.6
20260905133653 21 80 6.4 12.9 0.00 0.00 0.00 94 1017.7
20260905133148 21 93 1.6 8.0 0.00 0.00 0.00 95 1017.6
20260905132647 21 86 1.6 8.0 0.00 0.00 0.00 95 1017.8
20260905132142 21 73 9.7 12.9 0.00 0.00 0.00 96 1017.9
20260905131637 21 74 0.0 6.4 0.00 0.00 0.00 96 1017.7
20260905131132 20 91 1.6 8.0 0.00 0.00 0.00 97 1017.5
20260905130627 20 81 1.6 6.4 0.00 0.00 0.00 98 1017.4
20260905130126 20 102 6.4 9.7 0.00 0.00 0.00 99 1017.5
20260905125621 20 68 0.0 6.4 0.00 0.00 0.00 99 1017.5
20260905125117 20 72 1.6 6.4 0.00 0.00 0.00 99 1017.6
20260905124613 20 91 6.4 9.7 0.00 0.00 0.00 99 1017.4